Regional Weather Roundup
Issued by NWS

Home | Current Version | Previous Version | Graphics & Text | Print | Product List | Glossary On
Versions: 1 2 3 4 5 6 7 8 9 10 11 12 13 14 15 16 17 18 19 20 21 22 23 24 25 26 27 28 29 30 31 32 33 34 35 36 37 38 39 40 41 42 43 44 45 46 47 48 49 50
000
ASUS43 KMPX 211001
RWRMN
WEATHER ROUNDUP FOR MINNESOTA
NATIONAL WEATHER SERVICE TWIN CITIES/CHANHASSEN MN
500 AM CDT SUN SEP 21 2014


NOTE: "FAIR" INDICATES FEW OR NO CLOUDS BELOW 12,000 FEET WITH NO
SIGNIFICANT WEATHER AND/OR OBSTRUCTIONS TO VISIBILITY. N/A MEANS
CURRENT SKY AND/OR WEATHER CONDITIONS ARE NOT AVAILABLE.

MNZ060>063-068>070-211100-
   Twin Cities Metro

CITY           SKY/WX    TMP DP  RH WIND       PRES   REMARKS
TWIN CITIES    PTCLDY    53  46  77 NW16G26   29.93R
ST PAUL        CLOUDY    54  47  77 NW16      29.93R
CRYSTAL        PTCLDY    54  46  74 NW17G28   29.92R
BLAINE         CLOUDY    55  50  82 NW17      29.93R
LAKEVILLE      PTCLDY    52  46  82 NW16G23   29.93R
EDEN PRAIRIE   CLEAR     54  47  77 NW14      29.93R
SOUTH ST PAUL  MOCLDY    55  46  73 NW15G24   29.92R
LAKE ELMO      CLOUDY    54  48  82 NW14G22   29.92R
$$
MNZ001>005-007-008-013>017-022>024-027-028-211100-
   Northwest Minnesota

CITY           SKY/WX    TMP DP  RH WIND       PRES   REMARKS
BEMIDJI        DRIZZLE   49  48  97 NW3       30.00S
HALLOCK        CLEAR     50  48  93 NW7       30.05R
ROSEAU         CLOUDY    54  48  82 NW7       30.02R
WARROAD        CLOUDY    52  48  87 NW3       30.02R
THIEF RVR FALL CLOUDY    52  48  87 NW10      30.04R
CROOKSTON      CLEAR     48  48 100 NW7       30.06R
FOSSTON        CLOUDY    50  48  93 NW10      30.04R
DETROIT LAKES  CLOUDY    52  50  93 N15G21    30.05R
MOORHEAD       CLEAR     52  52 100 NW8       30.07R
PARK RAPIDS    CLOUDY    49  47  93 NW7       30.01R
MAHNOMEN       CLOUDY    51  49  94 NW9       30.03R
$$
MNZ006-009>011-018-025>026-211100-
   North Central Minnesota

CITY           SKY/WX    TMP DP  RH WIND       PRES   REMARKS
BAUDETTE       PTCLDY    48  47  96 VRB5      29.99R
FLAG ISLAND    MOCLDY    52  50  93 NW12      30.00R
INTL FALLS     CLOUDY    48  47  96 NW8       29.97R
WASKISH        CLOUDY    50  48  93 NW5       30.00R
BIG FORK       MOCLDY    48  46  93 NW5       29.98R
LONGVILLE      CLOUDY    52  46  82 NW3       29.98R
GRAND RAPIDS   CLOUDY    50  46  87 NW12G18   29.96R
CRANE LAKE     PTCLDY    48  46  93 N5        29.95R
ORR            CLOUDY    50  46  87 NW6       29.92R
COOK           CLOUDY    50  48  93 NW5       29.94R
WALKER         CLOUDY    49  47  93 NW3       30.00R
$$
MNZ012-019>021-037-211100-
   Northeast Minnesota

CITY           SKY/WX    TMP DP  RH WIND       PRES   REMARKS
DULUTH         CLOUDY    53  49  86 N8        29.90R
ELY            MOCLDY    48  46  93 NW7       29.92R
HIBBING        CLOUDY    52  48  86 NW13      29.93R
EVELETH        CLOUDY    52  50  93 NW7       29.93R
DULUTH HARBOR  DRIZZLE   52  52 100 NE13      29.91R
TWO HARBORS    MOCLDY    52  46  82 CALM      29.87R
SILVER BAY     MOCLDY    48  48 100 NW3       29.87R
GRAND MARAIS     N/A     52  45  77 NE8       29.86R
G MARAIS ARPRT CLOUDY    45  39  81 N9G16     29.86R
$$
MNZ029>031-032-039>041-046>048-054>057-064-211100-
   West Central Minnesota

CITY           SKY/WX    TMP DP  RH WIND       PRES   REMARKS
FERGUS FALLS   PTCLDY    48  46  93 NW10      30.06R
WHEATON        CLEAR     48  45  87 NW9       30.09R
MORRIS         CLEAR     50  46  87 NW9       30.04R
ALEXANDRIA     MOCLDY    51  49  92 NW10      30.04R
ELBOW LAKE     MOCLDY    51  49  95 NW10      30.05R
WADENA         CLOUDY    50  48  93 NW6       30.02R
GLENWOOD       CLEAR     52  48  87 NW10      30.03R
APPLETON       CLEAR     54  46  76 NW8       30.05R
BENSON         CLEAR     50  48  93 N8        30.04R
ORTONVILLE     CLEAR     54  46  76 NW12      30.06R
MADISON        CLEAR     54  46  76 NW7       30.06R
WILLMAR        FAIR      52  46  82 NW8       30.03R
$$
MNZ033>034-036-042>043-049>051-058-059-211100-
   Central Minnesota

CITY           SKY/WX    TMP DP  RH WIND       PRES   REMARKS
ST CLOUD       CLEAR     53  47  79 NW13      29.97R
SAUK CENTRE    CLOUDY    51  48  89 NW12      30.02R
PAYNESVILLE    CLOUDY    50  48  92 W8G18     30.01R
AITKIN         CLOUDY    52  46  82 NW7       29.95R
PINE RIVER     CLOUDY    50  46  87 NW7       30.02R
BRAINERD       CLOUDY    50  46  86 NW12      29.99R
STAPLES        CLEAR     46  46 100 NW6       30.01R
LONG PRAIRIE   CLOUDY    50  46  87 NW10      30.01R
LITTLE FALLS   CLEAR     50  45  81 NW6       29.99R
LITCHFIELD     MOCLDY    54  52  94 NW8       30.00R
BUFFALO        CLEAR     52  46  78 NW9G17    29.98R
MAPLE LAKE     CLEAR     53  48  85 NW8G16    29.98R
$$
MNZ037-044-045-052-053-211100-
   East Central Minnesota

CITY           SKY/WX    TMP DP  RH WIND       PRES   REMARKS
PRINCETON      CLOUDY    52  46  82 W10G16    29.95R
MORA           LGT RAIN  48  45  87 NW13      29.95R
CAMBRIDGE      LGT RAIN  54  45  71 NW7G16    29.92R
RUSH CITY      LGT RAIN  51  48  90 NW8G20    29.92R
MOOSE LAKE     CLOUDY    50  48  93 NW9G16    29.90R
HINCKLEY       DRIZZLE   52  50  93 NW12G17   29.91R
CLOQUET        CLOUDY    52  50  93 NW9       29.91R
MCGREGOR       CLOUDY    50  48  93 NW8       29.95R
$$
MNZ071>073-080-081-089-090-097-098-211100-
   Southwest Minnesota

CITY           SKY/WX    TMP DP  RH WIND       PRES   REMARKS
MONTEVIDEO     CLEAR     50  45  81 N7        30.05R
GRANITE FALLS  CLEAR     49  46  89 W8        30.06R
CANBY          CLEAR     51  46  84 W10       30.08R
MARSHALL       CLEAR     52  43  71 NW10      30.04R
REDWOOD FALLS  CLEAR     53  48  83 NW12      30.02R
OLIVIA         CLEAR     52  48  87 NW8       30.01R
PIPESTONE      CLEAR     52  45  76 NW7       30.08R
WINDOM         CLEAR     52  45  76 W7        30.04R
WORTHINGTON    CLEAR     52  45  76 NW10      30.07R
JACKSON        CLEAR     54  43  66 NW12G17   30.04R
TRACY          CLEAR     53  46  77 NW8       30.05R
SLAYTON        CLEAR     49  45  85 CALM      30.07R
$$
MNZ065>067-074>077-082>085-091>093-211100-
   South Central Minnesota

CITY           SKY/WX    TMP DP  RH WIND       PRES   REMARKS
MANKATO        CLEAR     52  45  76 NW12      29.98R
NEW ULM        CLEAR     52  50  93 NW14      30.00R
ST JAMES       CLEAR     54  46  76 W10       30.02R
FAIRMONT       CLEAR     55  43  62 NW13      30.00R
GLENCOE        CLEAR     54  48  80 NW10G18   29.98R
FARIBAULT      PTCLDY    55  46  71 NW9G16    29.95R
OWATONNA       PTCLDY    54  48  82 NW13      29.95R
WASECA         CLEAR     50  45  81 NW9       29.97R
ALBERT LEA     CLEAR     54  48  82 NW10G20   29.95R
$$
MNZ078>079-086>088-094>096-211100-
   Southeast Minnesota

CITY           SKY/WX    TMP DP  RH WIND       PRES   REMARKS
ROCHESTER      MOCLDY    53  49  86 NW14G24   29.91R
RED WING       PTCLDY    54  46  76 NW9G20    29.89R
STANTON        CLOUDY    55  47  75 NW14G20   29.93R
DODGE CENTER   PTCLDY    54  50  87 NW15      29.92R
WINONA         MOCLDY    55  48  76 NW12G24   29.85R
AUSTIN         CLEAR     54  48  82 NW14G21   29.93R
PRESTON        MOCLDY    53  52  97 NW18G28   29.89R
$$
ABBREVIATIONS USED IN REMARKS
   TC - TEMPERATURES IN CELSIUS
  WCI - WIND CHILL INDEX
   HX - HEAT INDEX
  VSB - VISIBILITY
$$



USA.gov is the U.S. government's official web portal to all federal, state and local government web resources and services.